Welcome to Hicks Airfield

Driving Safety »



  • Current KAFW METAR
    (5.8nm NE) LIFR
    KAFW 231353Z 12005KT 2 1/2SM -DZ BR OVC004 10/08 A3007 RMK AO2 SLP184 P0000 T01000083
  • Flappings Newsletter
    The official newsletter of HAPA.
    Read »
  • Property Owner's Portal
    Create an account on our new secure portal for access to secure documents.
    Log-in »
  • Air Traffic
    Hear Hicks air traffic from anywhere.
    Listen »